DELLINGR (RBLE) (43021 NORAD) Tracking and Keplerian Element Data

This shows tracking and keplerian element data for the satellite.

Feedback or suggestion? Click here.




ElementValue
Catalog43021
NameDELLINGR (RBLE)
Epoch Orbit6015
Epoch Day345.66076585
Epoch Year2018
RAAN204.874
Inclination51.6376
Eccentricity0.00031
Argument of Perigee112.1655
Mean Anonmoly247.9667
Mean Motion15.6000691
Decay Rate6.594E-05
L11 43021U 98067NJ 18345.66076585 .00006594 00000-0 86173-4 0 9997
L22 43021 51.6376 204.8740 0003100 112.1655 247.9667 15.60006910 60151

Live tracking and technical data element details for DELLINGR (RBLE) (NORAD 43021). DELLINGR (RBLE) can be tracked NOW for your location showing map with azimuth and elevation plus other details from your city location.

Track the satellite on the map from your city or location and see movement details for azimuth, elevation, latitude, longitude, range, height, and movement on the map or in text.







IsCatalogInMostPopularTable: catalog: 43021, numindb: 140
Update: records affected: 1



GetName: 43021 DELLINGR (RBLE)

Hit Count: updated at: Thu, 13 Dec 2018 03:53:11 GMT